QPF
0.00 0.00 0.00 0.00 0.00 0.00 0.00 0.00 0.00 0.00 0.00 0.00 0.00 0.01 0.00 0.01 0.02 0.01 0.00 0.00 0.01 0.23 0.58 0.32 0.04 0.00 0.00 0.00 0.00 0.00 0.00 0.00 0.00 0.00 0.00 0.00 0.00 0.00 0.00 0.00 0.00 0.00 0.00 0.00 0.00 0.00 0.00 0.00 0.00
0.00 0.00 0.00 0.00 0.00 0.00 0.00 0.00 0.00 0.00 0.00 0.00 0.00 0.00 0.01 0.00 0.01 0.02 0.04 0.00 0.00 0.04 0.16 0.35 0.11 0.00 0.00 0.00 0.00 0.00 0.00 0.00 0.00 0.00 0.00 0.00 0.00 0.00 0.00 0.00 0.00 0.00 0.00 0.00 0.00 0.00 0.00 0.00 0.00
0.00 0.00 0.00 0.00 0.00 0.00 0.00 0.00 0.00 0.00 0.00 0.00 0.00 0.02 0.03 0.03 0.01 0.02 0.13 0.20 0.10 0.09 0.15 0.22 0.10 0.00 0.00 0.00 0.00 0.00 0.00 0.00 0.00 0.00 0.00 0.00 0.00 0.00 0.00 0.00 0.00 0.00 0.00 0.00 0.00 0.00 0.00 0.00 0.00
0.00 0.00 0.00 0.00 0.00 0.00 0.00 0.00 0.00 0.00 0.00 0.00 0.00 0.01 0.04 0.02 0.03 0.02 0.01 0.14 0.38 0.27 0.57 0.35 0.09 0.09 0.02 0.00 0.00 0.00 0.00 0.00 0.00 0.00 0.00 0.00 0.00 0.00 0.00 0.00 0.00 0.00 0.00 0.00 0.00 0.00 0.00 0.00 0.00
0.00 0.00 0.00 0.00 0.00 0.00 0.00 0.00 0.00 0.00 0.00 0.00 0.01 0.03 0.01 0.01 0.00 0.01 0.00 0.02 0.18 0.08 0.30 0.51 0.31 0.23 0.02 0.02 0.00 0.00 0.00 0.00 0.00 0.00 0.00 0.00 0.00 0.00 0.00 0.00 0.00 0.00 0.00 0.00 0.00 0.00 0.00 0.00 0.00
0.00 0.00 0.00 0.00 0.00 0.00 0.00 0.00 0.00 0.00 0.02 0.01 0.04 0.04 0.02 0.05 0.00 0.00 0.00 0.00 0.01 0.03 0.13 0.31 0.30 0.06 0.01 0.03 0.03 0.00 0.00 0.00 0.00 0.00 0.00 0.00 0.00 0.00 0.00 0.00 0.00 0.00 0.00 0.00 0.00 0.00 0.00 0.00 0.00
0.00 0.00 0.00 0.00 0.00 0.00 0.00 0.00 0.00 0.03 0.03 0.03 0.02 0.00 0.00 0.04 0.10 0.05 0.03 0.06 0.01 0.03 0.16 0.23 0.29 0.16 0.08 0.04 0.03 0.00 0.00 0.00 0.00 0.00 0.00 0.00 0.00 0.00 0.00 0.00 0.00 0.00 0.00 0.00 0.00 0.00 0.00 0.00 0.00
0.00 0.00 0.00 0.00 0.00 0.00 0.00 0.00 0.01 0.04 0.05 0.04 0.02 0.07 0.11 0.22 0.11 0.13 0.06 0.11 0.11 0.01 0.06 0.13 0.16 0.16 0.12 0.08 0.03 0.00 0.00 0.00 0.00 0.00 0.00 0.00 0.00 0.00 0.00 0.00 0.00 0.00 0.00 0.00 0.00 0.00 0.00 0.00 0.00
0.00 0.00 0.00 0.00 0.00 0.00 0.00 0.00 0.00 0.02 0.04 0.06 0.03 0.10 0.11 0.14 0.06 0.10 0.04 0.04 0.10 0.08 0.05 0.03 0.04 0.07 0.07 0.12 0.12 0.01 0.00 0.00 0.00 0.00 0.00 0.00 0.00 0.00 0.00 0.00 0.00 0.00 0.00 0.00 0.00 0.00 0.00 0.00 0.00
0.00 0.00 0.00 0.00 0.00 0.00 0.00 0.00 0.00 0.03 0.08 0.04 0.00 0.03 0.07 0.10 0.06 0.07 0.07 0.06 0.03 0.09 0.06 0.05 0.03 0.03 0.01 0.00 0.05 0.01 0.01 0.00 0.00 0.00 0.00 0.00 0.00 0.00 0.00 0.00 0.00 0.00 0.00 0.00 0.00 0.00 0.00 0.00 0.00
0.00 0.00 0.00 0.00 0.00 0.00 0.00 0.01 0.00 0.01 0.00 0.00 0.00 0.01 0.04 0.04 0.04 0.02 0.01 0.02 0.01 0.00 0.01 0.02 0.03 0.03 0.02 0.01 0.00 0.00 0.00 0.00 0.00 0.00 0.00 0.00 0.00 0.00 0.00 0.00 0.00 0.00 0.00 0.00 0.00 0.00 0.00 0.00 0.00
0.00 0.00 0.00 0.00 0.00 0.00 0.00 0.01 0.02 0.04 0.01 0.00 0.00 0.00 0.01 0.01 0.02 0.01 0.00 0.00 0.00 0.01 0.01 0.04 0.02 0.01 0.01 0.00 0.00 0.00 0.00 0.00 0.00 0.02 0.00 0.00 0.00 0.00 0.00 0.00 0.00 0.00 0.00 0.00 0.00 0.00 0.00 0.00 0.00
0.00 0.00 0.00 0.00 0.00 0.00 0.00 0.00 0.03 0.03 0.02 0.00 0.00 0.00 0.02 0.00 0.00 0.00 0.00 0.00 0.00 0.00 0.01 0.03 0.01 0.00 0.01 0.00 0.00 0.00 0.00 0.00 0.02 0.01 0.00 0.00 0.00 0.00 0.00 0.00 0.00 0.00 0.00 0.00 0.00 0.00 0.00 0.00 0.00
0.00 0.00 0.00 0.00 0.00 0.00 0.00 0.00 0.02 0.15 0.02 0.01 0.00 0.00 0.00 0.00 0.00 0.00 0.00 0.00 0.00 0.00 0.00 0.00 0.00 0.00 0.00 0.00 0.00 0.00 0.00 0.00 0.01 0.01 0.00 0.00 0.00 0.00 0.00 0.02 0.00 0.00 0.00 0.00 0.00 0.00 0.00 0.00 0.00
0.00 0.00 0.00 0.00 0.00 0.00 0.00 0.00 0.02 0.10 0.01 0.00 0.00 0.00 0.00 0.00 0.00 0.00 0.00 0.00 0.00 0.00 0.00 0.00 0.00 0.00 0.00 0.00 0.00 0.00 0.00 0.00 0.00 0.00 0.00 0.00 0.00 0.01 0.02 0.02 0.00 0.00 0.00 0.00 0.00 0.00 0.00 0.00 0.00
0.00 0.00 0.00 0.00 0.00 0.00 0.00 0.00 0.00 0.04 0.07 0.02 0.00 0.00 0.00 0.00 0.00 0.00 0.00 0.00 0.00 0.00 0.00 0.00 0.00 0.00 0.00 0.00 0.00 0.00 0.00 0.00 0.00 0.00 0.00 0.00 0.00 0.00 0.00 0.00 0.00 0.00 0.00 0.00 0.00 0.00 0.00 0.00 0.00
0.00 0.00 0.00 0.00 0.00 0.00 0.00 0.00 0.00 0.02 0.10 0.02 0.00 0.00 0.00 0.00 0.00 0.00 0.00 0.00 0.00 0.00 0.00 0.00 0.00 0.00 0.00 0.00 0.00 0.00 0.00 0.00 0.00 0.00 0.00 0.00 0.00 0.00 0.00 0.00 0.00 0.00 0.00 0.00 0.00 0.00 0.00 0.00 0.00
0.00 0.00 0.00 0.00 0.00 0.00 0.00 0.00 0.00 0.01 0.01 0.01 0.00 0.00 0.00 0.00 0.00 0.00 0.00 0.00 0.00 0.00 0.00 0.00 0.00 0.00 0.00 0.00 0.00 0.00 0.00 0.00 0.00 0.00 0.01 0.00 0.01 0.03 0.02 0.01 0.01 0.00 0.00 0.00 0.00 0.00 0.00 0.00 0.00
0.00 0.00 0.00 0.00 0.00 0.00 0.00 0.00 0.00 0.00 0.00 0.01 0.00 0.00 0.00 0.00 0.00 0.00 0.00 0.00 0.00 0.00 0.00 0.00 0.00 0.00 0.00 0.00 0.00 0.00 0.00 0.00 0.00 0.00 0.02 0.03 0.03 0.08 0.04 0.01 0.00 0.00 0.00 0.00 0.00 0.00 0.00 0.00 0.00
0.00 0.00 0.00 0.00 0.00 0.00 0.00 0.00 0.00 0.00 0.00 0.00 0.00 0.00 0.00 0.00 0.00 0.00 0.00 0.00 0.00 0.00 0.00 0.00 0.00 0.00 0.00 0.00 0.00 0.00 0.00 0.00 0.00 0.00 0.04 0.04 0.02 0.06 0.04 0.01 0.00 0.00 0.00 0.00 0.00 0.00 0.00 0.00 0.00
0.00 0.00 0.00 0.00 0.00 0.00 0.00 0.00 0.00 0.01 0.01 0.03 0.00 0.00 0.00 0.00 0.00 0.00 0.00 0.00 0.00 0.00 0.00 0.00 0.00 0.00 0.00 0.00 0.00 0.00 0.00 0.00 0.00 0.00 0.02 0.04 0.05 0.04 0.06 0.02 0.00 0.00 0.00 0.00 0.00 0.00 0.00 0.00 0.00
0.00 0.00 0.00 0.00 0.00 0.00 0.00 0.00 0.00 0.00 0.01 0.02 0.01 0.00 0.00 0.00 0.00 0.00 0.00 0.00 0.00 0.00 0.00 0.00 0.00 0.00 0.00 0.00 0.00 0.00 0.00 0.00 0.00 0.00 0.01 0.03 0.01 0.05 0.16 0.05 0.01 0.00 0.00 0.00 0.00 0.00 0.00 0.00 0.00
0.00 0.00 0.00 0.00 0.00 0.00 0.00 0.00 0.00 0.00 0.01 0.01 0.01 0.00 0.01 0.01 0.00 0.00 0.00 0.00 0.00 0.00 0.00 0.00 0.00 0.00 0.00 0.00 0.00 0.00 0.00 0.00 0.00 0.00 0.00 0.00 0.02 0.02 0.08 0.04 0.01 0.00 0.00 0.00 0.00 0.00 0.00 0.00 0.00
0.00 0.00 0.00 0.00 0.00 0.00 0.00 0.00 0.00 0.00 0.00 0.01 0.01 0.00 0.01 0.01 0.00 0.00 0.00 0.00 0.00 0.00 0.00 0.00 0.00 0.00 0.00 0.00 0.00 0.00 0.02 0.01 0.00 0.00 0.00 0.03 0.01 0.13 0.10 0.07 0.05 0.02 0.02 0.02 0.00 0.00 0.00 0.00 0.00
0.00 0.00 0.00 0.00 0.00 0.00 0.00 0.00 0.00 0.00 0.00 0.00 0.00 0.00 0.00 0.00 0.00 0.00 0.00 0.00 0.00 0.00 0.00 0.00 0.00 0.00 0.00 0.00 0.00 0.00 0.01 0.01 0.00 0.00 0.05 0.12 0.11 0.16 0.08 0.11 0.04 0.00 0.02 0.02 0.00 0.00 0.00 0.00 0.00
0.00 0.00 0.00 0.00 0.00 0.00 0.01 0.00 0.00 0.00 0.00 0.00 0.00 0.00 0.00 0.00 0.00 0.00 0.00 0.00 0.00 0.00 0.00 0.00 0.00 0.00 0.00 0.00 0.00 0.00 0.01 0.00 0.00 0.01 0.11 0.18 0.10 0.08 0.12 0.04 0.02 0.00 0.02 0.01 0.00 0.00 0.00 0.00 0.00
0.00 0.00 0.00 0.00 0.00 0.00 0.00 0.00 0.00 0.00 0.00 0.00 0.00 0.00 0.00 0.00 0.00 0.00 0.00 0.00 0.00 0.00 0.00 0.00 0.00 0.00 0.00 0.00 0.00 0.00 0.00 0.00 0.01 0.03 0.05 0.08 0.11 0.08 0.12 0.09 0.03 0.00 0.00 0.00 0.00 0.00 0.00 0.00 0.00
0.00 0.00 0.00 0.00 0.00 0.00 0.00 0.00 0.00 0.00 0.00 0.00 0.00 0.00 0.00 0.00 0.00 0.00 0.01 0.00 0.00 0.00 0.00 0.00 0.00 0.01 0.04 0.05 0.00 0.00 0.00 0.00 0.02 0.01 0.05 0.08 0.15 0.13 0.14 0.14 0.09 0.04 0.01 0.00 0.00 0.00 0.00 0.00 0.00
0.00 0.00 0.00 0.00 0.00 0.00 0.00 0.00 0.00 0.00 0.00 0.00 0.00 0.00 0.00 0.00 0.00 0.00 0.01 0.01 0.01 0.00 0.00 0.00 0.03 0.07 0.05 0.14 0.05 0.04 0.03 0.08 0.21 0.19 0.08 0.11 0.06 0.09 0.16 0.12 0.04 0.01 0.00 0.00 0.00 0.00 0.00 0.00 0.00
0.00 0.00 0.00 0.00 0.00 0.00 0.00 0.00 0.00 0.00 0.00 0.00 0.00 0.00 0.00 0.00 0.00 0.00 0.00 0.00 0.00 0.01 0.01 0.01 0.01 0.04 0.12 0.12 0.20 0.25 0.29 0.25 0.46 0.48 0.20 0.09 0.07 0.10 0.04 0.01 0.01 0.01 0.00 0.00 0.00 0.00 0.00 0.00 0.00
MSLP
1011.50 1011.53 1012.14 1012.27 1013.29 1012.97 1011.91 1010.27 1008.60 1007.33 1006.17 1006.89 1006.09 1006.52 1007.40 1008.57 1009.67 1011.40 1011.05 1011.38 1011.96 1009.54 1010.10 1012.64 1012.94 1013.70 1013.15 1013.05 1013.72 1014.18 1014.76 1015.41 1015.74 1016.08 1016.51 1016.83 1017.24 1017.55 1017.87 1018.27 1018.73 1019.02 1019.48 1019.76 1019.96 1020.14 1020.36 1020.82 1021.12
1011.65 1011.48 1011.88 1012.29 1012.87 1012.86 1011.14 1008.63 1007.87 1006.51 1006.33 1006.69 1006.63 1007.16 1008.16 1009.95 1009.42 1011.32 1011.62 1011.37 1011.56 1011.76 1010.94 1011.56 1013.07 1013.73 1013.44 1013.43 1014.01 1014.13 1015.06 1015.63 1016.18 1016.38 1016.71 1017.13 1017.54 1017.87 1018.37 1018.73 1019.19 1019.59 1019.75 1020.11 1020.44 1020.48 1020.77 1021.20 1021.50
1011.80 1011.58 1012.24 1012.28 1012.11 1011.67 1010.46 1008.23 1006.95 1005.88 1005.67 1006.23 1008.05 1008.91 1009.84 1011.13 1010.72 1011.12 1011.55 1011.14 1011.23 1012.22 1012.24 1012.79 1012.12 1014.43 1014.12 1013.77 1014.05 1014.56 1015.31 1015.59 1015.90 1016.84 1017.28 1017.52 1017.84 1018.33 1018.67 1019.16 1019.61 1019.90 1020.38 1020.50 1020.72 1021.03 1021.19 1021.40 1021.46
1011.51 1011.66 1011.89 1011.64 1011.31 1009.66 1009.99 1008.92 1007.26 1006.50 1006.01 1007.51 1008.78 1011.02 1012.22 1012.72 1012.25 1011.75 1011.68 1011.85 1010.54 1012.79 1012.82 1012.58 1012.69 1013.94 1014.63 1014.16 1014.45 1015.14 1015.49 1015.93 1016.31 1016.80 1017.56 1018.23 1018.65 1018.69 1019.09 1019.48 1020.02 1020.11 1020.94 1020.97 1021.07 1021.65 1021.57 1021.76 1021.84
1011.69 1012.07 1012.19 1011.66 1010.78 1009.79 1008.95 1008.03 1007.54 1008.74 1009.36 1010.56 1009.23 1011.51 1011.77 1012.83 1012.29 1011.96 1011.50 1011.78 1011.83 1012.41 1012.22 1012.75 1012.71 1013.82 1014.30 1014.40 1015.64 1016.04 1015.86 1016.06 1016.64 1017.15 1017.70 1018.47 1019.19 1019.31 1019.65 1019.93 1020.18 1020.63 1021.31 1021.29 1021.60 1021.75 1021.94 1022.04 1022.01
1011.70 1011.76 1012.27 1011.54 1010.37 1009.07 1008.02 1007.83 1008.10 1010.07 1011.36 1012.58 1012.22 1012.12 1012.64 1013.51 1012.57 1012.41 1011.62 1011.95 1012.38 1012.90 1012.50 1012.51 1011.62 1013.28 1014.10 1015.05 1015.73 1016.65 1016.88 1016.50 1016.89 1017.56 1018.30 1018.88 1019.65 1020.00 1020.15 1020.41 1020.79 1021.35 1021.73 1021.86 1022.01 1022.30 1022.19 1022.32 1022.32
1011.28 1012.00 1011.62 1010.80 1009.47 1008.43 1008.20 1007.93 1008.95 1010.23 1010.59 1013.68 1013.86 1014.15 1014.55 1014.69 1013.97 1012.62 1012.72 1012.88 1013.15 1013.25 1013.64 1013.66 1011.64 1013.14 1014.56 1015.69 1015.76 1016.97 1017.49 1017.21 1017.29 1017.90 1018.72 1019.47 1019.90 1020.66 1020.77 1021.07 1021.28 1021.68 1022.24 1022.27 1022.40 1022.69 1022.75 1022.75 1022.88
1010.59 1011.45 1011.00 1009.91 1008.67 1008.24 1008.08 1008.43 1009.45 1010.19 1012.33 1012.72 1012.84 1012.67 1013.65 1014.63 1014.46 1013.62 1013.50 1013.74 1013.70 1013.83 1014.05 1014.57 1013.10 1013.63 1015.38 1016.10 1016.61 1017.63 1017.98 1017.65 1017.78 1018.11 1019.05 1019.78 1020.19 1020.92 1021.36 1021.64 1021.92 1021.98 1022.48 1022.69 1022.85 1023.05 1023.12 1023.10 1023.06
1009.45 1010.60 1010.58 1009.04 1007.96 1007.92 1007.75 1008.45 1009.91 1011.00 1011.94 1011.45 1011.71 1012.28 1013.20 1013.99 1014.13 1014.40 1013.98 1013.96 1014.18 1014.45 1014.17 1014.02 1014.26 1015.35 1016.45 1017.00 1017.56 1018.27 1018.36 1018.08 1018.53 1019.04 1019.38 1019.98 1020.56 1021.27 1021.77 1021.83 1022.18 1022.59 1022.75 1022.89 1023.18 1023.39 1023.49 1023.58 1023.79
1009.55 1009.73 1008.95 1007.64 1007.13 1007.27 1007.50 1008.05 1009.38 1011.00 1011.77 1012.54 1013.43 1013.88 1013.75 1013.90 1014.12 1014.59 1014.77 1014.91 1015.14 1015.16 1015.10 1015.59 1014.66 1015.85 1016.64 1016.75 1017.57 1018.66 1018.48 1018.79 1019.22 1019.27 1019.59 1020.29 1020.70 1021.62 1022.01 1022.24 1022.55 1022.85 1023.08 1023.10 1023.48 1023.76 1023.99 1024.07 1024.20
1008.46 1008.61 1007.66 1006.90 1006.51 1006.58 1007.49 1008.33 1009.37 1011.27 1012.22 1012.98 1013.42 1013.95 1014.03 1013.73 1014.05 1014.70 1015.33 1015.37 1015.50 1015.63 1015.84 1016.07 1015.95 1016.52 1016.84 1017.48 1017.91 1018.64 1018.91 1019.37 1019.36 1019.31 1019.85 1020.43 1020.94 1021.45 1022.31 1022.65 1022.91 1023.22 1023.27 1023.34 1023.87 1024.11 1024.37 1024.35 1024.50
1007.71 1007.26 1006.94 1006.43 1006.04 1006.25 1007.29 1008.67 1010.52 1011.46 1013.03 1013.01 1013.58 1013.62 1013.94 1014.01 1014.27 1014.99 1015.48 1015.72 1016.01 1016.24 1016.52 1016.46 1016.26 1016.59 1017.14 1018.05 1018.70 1019.10 1019.22 1019.27 1019.76 1019.59 1020.41 1020.63 1020.89 1021.88 1022.36 1022.89 1023.12 1023.33 1023.38 1023.54 1023.93 1024.26 1024.53 1024.60 1024.39
1006.93 1006.71 1006.51 1006.19 1005.99 1006.28 1007.28 1008.84 1010.62 1011.98 1013.18 1013.42 1013.47 1013.46 1013.82 1014.28 1014.86 1015.26 1015.48 1015.95 1016.41 1016.42 1016.71 1016.67 1016.74 1016.98 1017.64 1018.02 1018.74 1019.25 1019.21 1019.96 1019.87 1019.86 1020.22 1020.60 1021.09 1021.91 1022.35 1022.48 1022.94 1023.25 1023.33 1023.64 1023.86 1024.10 1024.28 1024.49 1024.75
1006.88 1006.58 1006.31 1006.25 1006.19 1006.37 1007.54 1009.43 1009.90 1011.39 1012.23 1012.68 1013.40 1013.68 1014.24 1014.49 1015.10 1015.76 1015.94 1016.09 1016.28 1016.55 1016.76 1016.75 1017.07 1017.53 1017.86 1018.49 1019.05 1019.27 1019.66 1019.64 1019.19 1020.67 1020.26 1020.54 1021.16 1021.75 1021.96 1022.55 1022.75 1022.94 1023.21 1023.40 1023.69 1023.97 1024.32 1024.63 1024.70
1007.12 1007.01 1006.45 1006.17 1006.07 1007.23 1007.61 1009.31 1010.68 1011.13 1011.96 1012.35 1012.95 1013.51 1013.99 1014.51 1015.02 1015.57 1016.15 1016.24 1016.35 1016.68 1017.00 1017.29 1017.68 1017.76 1018.03 1018.86 1019.38 1019.81 1019.64 1019.46 1020.13 1020.69 1020.35 1020.61 1021.09 1021.52 1022.08 1022.51 1022.57 1022.65 1022.77 1023.03 1023.57 1024.06 1024.34 1024.79 1024.84
1007.93 1007.35 1006.96 1005.96 1006.14 1007.29 1007.44 1009.45 1010.47 1010.69 1011.51 1012.78 1012.29 1012.64 1013.73 1014.18 1014.72 1015.48 1016.34 1016.51 1016.84 1016.85 1017.15 1017.66 1017.93 1018.22 1018.69 1019.08 1019.60 1019.91 1019.81 1019.75 1020.36 1020.17 1020.42 1020.61 1021.01 1021.24 1021.67 1021.75 1022.00 1022.21 1022.64 1023.19 1023.61 1024.10 1024.52 1024.81 1025.05
1007.86 1007.75 1006.89 1006.17 1005.83 1007.17 1007.93 1009.33 1009.56 1010.53 1010.93 1012.04 1012.41 1012.34 1013.41 1014.03 1014.80 1015.52 1015.79 1016.55 1016.97 1017.20 1017.30 1017.38 1017.82 1018.33 1018.73 1019.21 1019.58 1019.84 1019.89 1020.11 1020.14 1019.79 1020.36 1020.47 1020.61 1020.88 1021.11 1021.50 1021.74 1022.02 1022.51 1023.06 1023.35 1023.83 1024.14 1024.71 1025.09
1007.65 1007.21 1006.35 1005.92 1006.15 1007.24 1008.32 1009.31 1009.06 1009.58 1010.35 1010.72 1011.27 1011.61 1012.45 1013.49 1014.49 1015.08 1015.65 1016.17 1016.56 1017.02 1017.19 1017.37 1018.09 1018.44 1018.87 1019.23 1019.48 1019.71 1020.32 1020.20 1020.00 1020.21 1020.01 1019.97 1020.20 1020.42 1020.81 1021.25 1021.50 1021.80 1022.37 1022.81 1023.29 1023.69 1024.27 1024.42 1024.70
1007.01 1006.58 1006.16 1005.55 1005.44 1006.74 1007.58 1008.81 1008.60 1008.31 1009.90 1010.39 1010.13 1010.59 1011.52 1012.49 1013.47 1014.56 1015.48 1016.26 1016.70 1017.10 1017.29 1017.85 1018.08 1018.50 1019.11 1019.17 1019.43 1019.73 1019.91 1019.93 1019.59 1019.55 1019.39 1019.43 1019.68 1020.09 1020.67 1021.08 1021.43 1021.37 1022.02 1022.48 1022.93 1023.50 1024.04 1024.36 1024.61
1006.25 1005.95 1005.47 1005.05 1005.17 1005.84 1007.55 1008.46 1008.59 1008.59 1008.97 1009.03 1009.05 1009.80 1010.63 1011.79 1012.83 1013.85 1014.87 1015.59 1015.95 1016.42 1016.78 1017.13 1017.57 1018.02 1018.09 1018.40 1018.69 1018.99 1019.05 1018.86 1018.83 1018.79 1019.00 1019.08 1019.37 1019.83 1020.22 1020.73 1021.19 1021.33 1021.78 1022.23 1022.69 1023.09 1023.95 1024.14 1024.37
1005.29 1005.12 1005.03 1005.29 1005.37 1005.78 1006.71 1008.85 1009.14 1008.54 1008.56 1008.60 1008.37 1008.71 1009.59 1010.54 1011.75 1012.86 1013.92 1014.77 1015.40 1015.68 1015.81 1016.17 1016.39 1016.72 1017.00 1017.40 1017.95 1018.16 1018.24 1018.35 1018.37 1018.48 1018.64 1018.57 1019.05 1019.41 1019.84 1020.24 1020.59 1020.96 1021.10 1021.75 1022.28 1022.62 1023.06 1023.78 1024.35
1004.82 1004.32 1004.57 1005.02 1005.51 1006.24 1006.31 1007.92 1008.41 1007.85 1007.52 1007.63 1007.53 1008.00 1008.81 1009.76 1010.56 1011.42 1012.50 1013.55 1013.92 1014.33 1014.75 1015.10 1015.49 1015.75 1016.10 1016.50 1016.78 1017.04 1017.18 1017.36 1017.51 1017.96 1018.28 1018.44 1018.59 1018.96 1019.18 1019.50 1019.79 1020.11 1020.59 1021.25 1021.75 1021.89 1022.56 1023.34 1024.47
1004.28 1004.22 1004.65 1005.17 1005.92 1006.30 1006.37 1007.39 1006.34 1006.69 1006.71 1006.51 1006.61 1006.92 1007.55 1008.31 1009.16 1010.06 1010.89 1011.74 1012.73 1013.39 1013.70 1014.03 1014.42 1014.68 1014.88 1015.25 1015.61 1015.92 1016.04 1016.28 1016.55 1016.97 1017.50 1017.75 1017.88 1018.14 1018.54 1019.25 1019.46 1019.78 1020.06 1020.18 1020.68 1021.81 1022.38 1023.01 1024.37
1003.83 1004.28 1004.63 1005.42 1006.33 1007.03 1006.93 1007.06 1005.85 1005.78 1005.08 1005.10 1005.57 1005.95 1006.53 1006.96 1007.79 1008.57 1009.20 1010.25 1011.00 1012.02 1012.64 1012.84 1013.11 1013.51 1014.02 1014.45 1014.73 1014.90 1015.27 1015.69 1015.97 1016.23 1016.60 1016.80 1017.22 1017.63 1017.79 1018.24 1018.90 1019.36 1019.99 1020.35 1020.79 1021.17 1022.05 1022.48 1023.20
1003.70 1004.68 1005.84 1006.88 1007.55 1007.79 1007.24 1006.67 1005.34 1004.24 1003.39 1003.01 1003.60 1004.25 1004.97 1005.46 1006.34 1007.21 1008.07 1008.87 1009.68 1010.03 1010.68 1011.45 1011.98 1012.23 1012.72 1013.20 1013.46 1013.65 1013.78 1014.22 1014.59 1015.27 1015.90 1016.34 1016.69 1017.37 1017.56 1017.82 1018.30 1018.91 1019.38 1019.86 1020.18 1021.23 1021.83 1022.55 1023.08
1003.46 1004.42 1006.04 1007.32 1008.20 1008.16 1007.26 1006.41 1004.75 1004.15 1002.75 1002.26 1002.63 1002.70 1003.59 1004.70 1005.19 1005.70 1006.36 1007.19 1007.95 1008.51 1009.03 1009.95 1010.57 1011.02 1011.62 1012.06 1012.20 1012.42 1012.90 1013.25 1013.36 1014.05 1014.81 1015.80 1016.30 1016.30 1017.21 1017.50 1017.69 1018.25 1019.00 1019.76 1020.20 1021.12 1021.88 1022.39 1022.71
1003.04 1003.75 1004.62 1006.54 1008.05 1008.40 1007.82 1006.47 1004.53 1003.15 1002.82 1002.31 1002.45 1002.85 1003.32 1003.56 1004.36 1004.71 1005.09 1005.83 1006.39 1006.78 1007.57 1008.07 1008.85 1009.78 1010.40 1010.68 1011.26 1011.42 1011.62 1012.33 1012.93 1013.33 1013.69 1013.76 1014.39 1015.61 1016.83 1017.32 1017.63 1018.29 1018.99 1019.65 1020.20 1020.93 1021.64 1022.05 1022.55
1002.15 1003.30 1004.53 1006.01 1008.12 1008.61 1007.83 1006.65 1004.91 1003.57 1002.52 1002.09 1002.19 1002.53 1002.73 1002.75 1003.35 1003.73 1004.22 1004.57 1004.86 1005.25 1005.80 1006.86 1007.58 1007.88 1008.19 1008.83 1009.52 1010.14 1010.60 1011.14 1011.78 1012.37 1013.20 1013.70 1014.80 1015.00 1015.51 1017.50 1017.66 1018.37 1019.20 1019.72 1020.20 1020.88 1021.34 1021.86 1022.33
1001.93 1002.77 1004.05 1005.35 1007.08 1008.15 1007.78 1005.88 1003.75 1003.37 1002.72 1001.76 1001.63 1001.67 1001.93 1002.19 1002.65 1003.08 1003.65 1003.83 1004.04 1004.02 1004.83 1005.94 1006.96 1008.46 1008.85 1009.50 1009.28 1009.50 1009.64 1009.34 1010.50 1011.53 1012.33 1014.00 1015.28 1015.83 1015.85 1016.97 1017.61 1018.27 1019.07 1019.50 1020.18 1020.75 1021.19 1021.69 1022.12
1000.96 1002.10 1003.30 1004.80 1006.35 1006.86 1006.94 1005.66 1003.08 1002.46 1001.90 1001.35 1001.52 1001.43 1001.54 1001.80 1002.05 1002.37 1002.96 1003.10 1003.39 1003.53 1004.29 1005.38 1006.17 1006.57 1006.60 1007.20 1008.02 1008.74 1009.77 1010.47 1010.39 1011.84 1011.37 1012.47 1014.58 1015.44 1015.20 1016.27 1017.15 1017.95 1018.69 1019.13 1019.86 1020.51 1021.03 1021.37 1021.85
Thickness
5709 5703 5694 5682 5645 5640 5638 5659 5688 5697 5706 5707 5723 5717 5705 5701 5691 5670 5699 5703 5697 5722 5697 5686 5692 5694 5707 5710 5705 5704 5702 5698 5697 5696 5694 5693 5690 5689 5686 5683 5679 5677 5672 5670 5668 5668 5667 5664 5662
5703 5700 5687 5669 5639 5624 5644 5684 5685 5708 5710 5705 5712 5712 5702 5683 5703 5692 5697 5705 5700 5697 5700 5689 5691 5691 5699 5701 5699 5701 5696 5692 5689 5690 5688 5686 5684 5682 5677 5675 5671 5667 5667 5664 5661 5662 5661 5658 5656
5698 5695 5668 5652 5639 5637 5645 5687 5704 5716 5723 5715 5688 5695 5688 5673 5692 5694 5696 5702 5699 5688 5686 5689 5702 5679 5686 5692 5694 5692 5689 5689 5689 5680 5678 5678 5677 5673 5671 5667 5663 5661 5657 5657 5657 5655 5654 5654 5654
5693 5680 5670 5649 5644 5669 5669 5684 5697 5709 5718 5703 5688 5663 5667 5666 5674 5685 5685 5686 5697 5679 5679 5681 5686 5679 5675 5684 5685 5682 5682 5681 5680 5678 5673 5668 5665 5667 5663 5661 5656 5657 5649 5650 5651 5646 5649 5647 5648
5686 5667 5645 5643 5648 5673 5686 5694 5701 5678 5675 5666 5689 5660 5666 5664 5676 5678 5682 5677 5679 5674 5679 5678 5673 5673 5672 5677 5668 5664 5672 5674 5673 5672 5670 5663 5656 5656 5654 5652 5652 5648 5643 5645 5642 5643 5642 5642 5643
5667 5665 5635 5635 5657 5684 5695 5693 5695 5664 5652 5648 5650 5657 5656 5652 5667 5666 5675 5671 5672 5664 5669 5675 5668 5671 5669 5666 5656 5652 5658 5667 5668 5664 5658 5655 5648 5646 5646 5645 5643 5639 5637 5637 5636 5634 5637 5636 5638
5664 5647 5639 5647 5665 5676 5685 5691 5679 5661 5664 5633 5640 5632 5631 5630 5646 5665 5662 5660 5660 5658 5653 5654 5656 5660 5659 5653 5655 5648 5649 5657 5659 5655 5651 5645 5642 5636 5637 5636 5635 5633 5629 5630 5629 5627 5628 5630 5630
5672 5654 5645 5654 5665 5670 5679 5682 5678 5671 5646 5650 5650 5648 5636 5627 5634 5649 5651 5648 5653 5652 5649 5639 5652 5655 5649 5643 5642 5638 5638 5647 5649 5650 5645 5639 5637 5632 5626 5626 5625 5626 5623 5623 5622 5621 5623 5624 5626
5689 5645 5636 5657 5670 5672 5689 5678 5666 5663 5648 5661 5658 5649 5639 5636 5638 5636 5646 5646 5644 5644 5646 5643 5643 5642 5636 5632 5627 5629 5634 5641 5640 5637 5637 5635 5631 5623 5618 5619 5618 5616 5616 5616 5615 5616 5618 5618 5617
5668 5644 5654 5683 5684 5678 5686 5683 5668 5659 5650 5643 5630 5626 5632 5633 5636 5633 5635 5636 5636 5634 5634 5632 5643 5638 5635 5633 5627 5622 5630 5629 5628 5631 5629 5626 5623 5616 5613 5611 5611 5608 5608 5609 5607 5611 5610 5612 5614
5676 5655 5678 5689 5693 5693 5681 5676 5676 5650 5638 5633 5628 5624 5625 5631 5635 5630 5625 5629 5631 5633 5629 5629 5633 5631 5628 5627 5628 5625 5623 5622 5623 5626 5620 5619 5616 5615 5608 5605 5604 5602 5603 5604 5604 5606 5605 5609 5610
5674 5684 5688 5693 5697 5698 5683 5676 5655 5647 5635 5640 5631 5629 5628 5630 5631 5628 5624 5623 5622 5624 5624 5625 5631 5630 5625 5620 5616 5615 5615 5618 5616 5618 5613 5613 5612 5605 5603 5600 5598 5598 5599 5601 5602 5603 5602 5603 5607
5683 5687 5691 5694 5698 5698 5687 5670 5656 5645 5638 5636 5635 5634 5631 5627 5625 5623 5622 5620 5619 5621 5619 5623 5626 5624 5618 5615 5609 5610 5612 5609 5610 5610 5610 5607 5605 5600 5598 5599 5597 5595 5597 5598 5603 5602 5602 5602 5601
5688 5688 5690 5692 5691 5699 5681 5661 5663 5654 5648 5643 5634 5629 5621 5622 5619 5615 5615 5616 5616 5617 5617 5621 5620 5614 5610 5607 5605 5605 5603 5606 5610 5598 5603 5602 5599 5596 5597 5595 5596 5596 5596 5600 5601 5600 5600 5600 5600
5686 5673 5683 5688 5690 5678 5684 5657 5647 5659 5650 5642 5635 5630 5626 5621 5618 5615 5610 5612 5615 5613 5612 5611 5609 5609 5609 5604 5601 5599 5601 5602 5599 5595 5599 5597 5594 5596 5593 5596 5596 5598 5600 5601 5599 5597 5598 5595 5595
5667 5671 5655 5687 5686 5681 5682 5650 5650 5656 5655 5635 5641 5639 5627 5623 5620 5613 5606 5606 5604 5606 5606 5603 5601 5601 5598 5598 5595 5593 5597 5597 5591 5593 5593 5593 5594 5597 5598 5601 5601 5603 5602 5598 5597 5595 5592 5591 5590
5659 5643 5656 5668 5692 5677 5673 5653 5665 5658 5659 5644 5638 5638 5630 5627 5620 5612 5613 5606 5601 5601 5600 5602 5601 5597 5594 5592 5592 5591 5593 5591 5592 5595 5594 5596 5596 5600 5602 5600 5603 5603 5601 5597 5595 5594 5591 5587 5584
5646 5653 5667 5668 5683 5674 5657 5652 5667 5667 5657 5657 5651 5647 5640 5631 5621 5619 5616 5615 5611 5607 5606 5605 5599 5598 5597 5595 5592 5592 5589 5590 5595 5594 5601 5602 5604 5605 5601 5600 5602 5602 5599 5598 5594 5591 5584 5584 5581
5667 5662 5665 5678 5691 5669 5659 5649 5664 5676 5656 5655 5660 5657 5647 5639 5633 5625 5617 5610 5609 5606 5606 5602 5601 5598 5592 5594 5594 5595 5591 5594 5599 5601 5606 5610 5608 5604 5602 5599 5599 5603 5600 5596 5592 5586 5580 5578 5577
5670 5661 5664 5682 5688 5683 5657 5650 5660 5665 5662 5664 5664 5657 5653 5645 5639 5631 5624 5619 5618 5613 5611 5608 5605 5601 5603 5602 5600 5598 5599 5603 5606 5608 5609 5609 5606 5604 5604 5602 5599 5599 5598 5595 5589 5584 5578 5576 5573
5671 5665 5668 5667 5676 5685 5673 5636 5644 5661 5663 5667 5669 5668 5662 5653 5645 5639 5630 5623 5619 5618 5618 5615 5614 5614 5614 5611 5607 5607 5608 5605 5607 5607 5608 5609 5606 5604 5603 5603 5601 5598 5600 5595 5591 5586 5580 5571 5567
5656 5682 5677 5673 5662 5639 5676 5628 5642 5653 5665 5667 5672 5669 5663 5658 5656 5650 5642 5634 5633 5631 5629 5627 5624 5624 5623 5620 5617 5615 5614 5613 5613 5608 5608 5608 5606 5605 5603 5603 5603 5601 5596 5590 5585 5585 5578 5568 5557
5666 5679 5674 5671 5655 5657 5660 5641 5660 5663 5658 5669 5670 5675 5671 5670 5663 5658 5655 5650 5641 5638 5636 5636 5633 5632 5631 5629 5626 5623 5623 5621 5620 5615 5612 5611 5609 5606 5605 5602 5600 5599 5596 5593 5587 5576 5570 5563 5549
5684 5674 5675 5669 5653 5617 5649 5646 5645 5655 5668 5672 5673 5678 5679 5679 5676 5670 5669 5662 5657 5649 5645 5644 5642 5638 5634 5631 5629 5627 5625 5623 5623 5622 5617 5614 5611 5608 5607 5603 5599 5594 5590 5586 5580 5574 5565 5559 5552
5671 5656 5622 5615 5606 5603 5648 5643 5651 5676 5688 5695 5689 5689 5687 5688 5684 5679 5672 5668 5663 5663 5657 5652 5648 5645 5642 5637 5636 5636 5635 5632 5629 5623 5617 5616 5612 5604 5602 5599 5598 5594 5588 5582 5578 5567 5560 5551 5544
5661 5655 5614 5608 5592 5621 5644 5632 5655 5678 5692 5701 5702 5702 5698 5686 5689 5689 5683 5676 5672 5669 5667 5660 5654 5651 5648 5644 5641 5639 5637 5634 5631 5624 5620 5613 5608 5608 5600 5597 5596 5592 5583 5576 5570 5560 5551 5543 5537
5660 5642 5665 5634 5628 5609 5619 5647 5668 5684 5683 5691 5691 5689 5686 5688 5688 5687 5687 5683 5679 5679 5672 5669 5663 5653 5649 5647 5643 5642 5641 5634 5630 5626 5621 5623 5617 5607 5595 5590 5588 5584 5576 5568 5561 5552 5543 5537 5529
5665 5672 5637 5631 5598 5594 5617 5628 5641 5666 5680 5688 5686 5684 5688 5693 5691 5691 5686 5687 5690 5688 5685 5674 5669 5666 5664 5659 5653 5648 5645 5640 5632 5627 5620 5617 5609 5606 5598 5581 5580 5574 5566 5559 5552 5544 5537 5529 5521
5653 5647 5648 5643 5622 5598 5595 5620 5666 5665 5672 5683 5688 5691 5692 5695 5691 5688 5686 5685 5688 5692 5687 5677 5668 5654 5652 5645 5646 5645 5643 5646 5635 5625 5614 5607 5591 5590 5590 5580 5574 5569 5559 5553 5544 5537 5529 5520 5512
5666 5655 5650 5609 5619 5624 5606 5621 5677 5677 5683 5691 5685 5692 5690 5695 5698 5698 5690 5690 5686 5683 5678 5669 5664 5663 5665 5658 5654 5644 5632 5620 5606 5615 5618 5598 5587 5586 5591 5579 5570 5562 5553 5547 5538 5529 5520 5513 5504